TimeEST,TemperatureF,Dew PointF,Humidity,Sea Level PressureIn,VisibilityMPH,Wind Direction,Wind SpeedMPH,Gust SpeedMPH,PrecipitationIn,Events,Conditions,WindDirDegrees,DateUTC
12:56 AM,30.0,24.1,79,30.02,10.0,Calm,Calm,-,N/A,,Clear,0,2014-01-17 05:56:00
1:56 AM,28.9,21.9,75,30.01,10.0,Calm,Calm,-,N/A,,Clear,0,2014-01-17 06:56:00
2:56 AM,30.0,21.9,72,30.01,10.0,Calm,Calm,-,N/A,,Clear,0,2014-01-17 07:56:00
3:56 AM,30.0,23.0,75,29.99,10.0,Calm,Calm,-,N/A,,Clear,0,2014-01-17 08:56:00
4:56 AM,28.9,21.0,72,29.99,10.0,Calm,Calm,-,N/A,,Clear,0,2014-01-17 09:56:00
5:56 AM,28.9,21.0,72,29.99,10.0,Calm,Calm,-,N/A,,Clear,0,2014-01-17 10:56:00
6:56 AM,28.0,21.0,75,29.99,10.0,Calm,Calm,-,N/A,,Clear,0,2014-01-17 11:56:00
8:56 AM,35.1,21.9,59,30.02,10.0,Calm,Calm,-,N/A,,Clear,0,2014-01-17 13:56:00
9:56 AM,39.0,19.9,46,30.02,10.0,Variable,5.8,-,N/A,,Clear,0,2014-01-17 14:56:00
10:56 AM,43.0,21.9,43,30.00,10.0,SW,5.8,-,N/A,,Clear,220,2014-01-17 15:56:00
11:56 AM,46.9,25.0,42,29.96,10.0,Variable,3.5,-,N/A,,Clear,0,2014-01-17 16:56:00
12:56 PM,50.0,27.0,41,29.91,10.0,North,-9999.0,-,N/A,,Clear,0,2014-01-17 17:56:00
1:56 PM,54.0,28.9,38,29.88,10.0,Variable,4.6,-,N/A,,Clear,0,2014-01-17 18:56:00
2:56 PM,53.1,28.0,38,29.87,10.0,Variable,6.9,-,N/A,,Clear,0,2014-01-17 19:56:00
3:56 PM,52.0,28.0,40,29.87,10.0,SSW,4.6,-,N/A,,Clear,210,2014-01-17 20:56:00
4:56 PM,51.1,28.9,43,29.86,10.0,Calm,Calm,-,N/A,,Clear,0,2014-01-17 21:56:00
5:56 PM,48.0,30.0,50,29.88,10.0,Calm,Calm,-,N/A,,Clear,0,2014-01-17 22:56:00
6:56 PM,48.0,32.0,54,29.89,10.0,Variable,3.5,-,N/A,,Clear,0,2014-01-17 23:56:00
7:56 PM,46.9,32.0,56,29.89,10.0,Variable,5.8,-,N/A,,Clear,0,2014-01-18 00:56:00
8:56 PM,45.0,32.0,60,29.88,10.0,Calm,Calm,-,N/A,,Clear,0,2014-01-18 01:56:00
9:56 PM,45.0,33.1,63,29.86,10.0,Calm,Calm,-,N/A,,Overcast,0,2014-01-18 02:56:00
10:56 PM,48.9,30.0,48,29.85,10.0,Variable,4.6,-,N/A,,Overcast,0,2014-01-18 03:56:00
11:56 PM,46.9,26.1,44,29.85,10.0,Variable,4.6,-,N/A,,Overcast,0,2014-01-18 04:56:00